Temperature
22 19 18 19 19 20 20 20 19 20 21 20 19 18 18 19 19 18 18 18 18 19 19 19 18 18 18 18 17 17 17 17 16 16 16 16 16 16 16 16 15 15 15 15
19 19 20 21 21 21 20 20 20 20 21 20 19 18 18 18 18 18 18 18 18 19 18 18 18 18 18 17 17 17 17 16 16 16 16 16 16 16 16 15 15 15 15 15
19 20 22 22 21 21 21 20 20 20 20 20 19 18 18 18 19 19 19 19 19 19 19 18 18 18 18 17 17 17 17 16 16 16 16 16 16 16 15 15 15 15 15 15
20 21 22 21 21 21 20 21 21 21 19 18 19 17 17 17 17 18 18 18 18 18 19 18 18 18 18 17 17 17 16 16 16 16 16 16 15 15 15 15 15 15 15 14
20 21 21 21 22 22 21 22 21 21 19 18 18 17 17 17 17 17 17 18 19 19 19 18 18 18 18 17 17 17 16 16 16 16 16 15 15 15 15 15 15 15 14 14
21 22 22 22 22 22 22 21 20 17 17 17 18 17 17 17 17 18 18 18 19 19 18 18 18 18 17 17 17 17 16 16 16 16 15 15 15 15 15 15 14 14 14 14
20 21 22 22 22 21 20 18 17 17 16 17 18 18 17 18 18 18 18 18 19 19 18 18 18 17 17 17 17 16 16 16 16 16 15 15 15 15 15 15 14 14 14 14
19 19 21 21 21 20 19 18 17 17 17 17 18 17 18 19 19 19 19 19 19 19 18 18 18 18 17 17 17 16 16 16 16 15 15 15 15 15 15 14 14 14 14 14
18 18 21 21 21 20 19 18 17 17 17 17 17 18 19 19 18 18 18 18 18 18 18 18 18 17 17 17 17 16 16 16 15 15 15 15 15 15 14 14 14 14 14 14
19 19 20 21 21 21 20 18 16 17 17 17 17 17 17 18 18 18 17 17 18 18 18 18 18 18 17 17 16 16 16 16 15 15 15 15 15 14 14 14 14 14 14 13
19 18 19 20 20 20 19 19 17 15 16 16 16 17 18 18 18 17 17 18 18 18 17 17 17 17 17 17 16 16 16 15 15 15 15 15 14 14 14 14 14 13 13 13
18 17 17 18 20 20 20 19 17 16 16 15 15 16 18 17 18 17 18 18 18 18 17 17 17 17 16 16 16 16 15 15 15 15 15 14 14 14 14 14 13 13 13 13
18 16 17 17 18 19 20 19 18 16 15 15 15 16 18 17 17 18 18 18 17 17 17 17 16 16 16 16 16 15 15 15 15 15 14 14 14 14 14 13 13 13 13 13
18 16 16 17 17 18 19 19 19 17 15 16 16 16 17 17 16 17 17 17 17 17 17 16 16 16 16 15 15 15 15 15 14 14 14 14 14 13 13 13 13 13 13 13
17 16 17 17 18 19 19 19 19 18 17 16 17 16 16 16 16 17 17 17 16 16 16 16 16 15 15 15 15 15 14 14 14 14 13 13 13 13 13 13 13 13 12 12
15 17 17 18 18 18 18 18 18 18 18 17 17 16 16 16 16 16 16 16 16 16 16 16 15 15 15 15 14 14 14 14 13 13 13 13 13 13 13 12 12 12 12 12
15 15 16 16 17 18 17 17 18 18 17 17 16 16 15 15 15 15 15 15 15 15 15 15 15 15 15 14 14 14 14 13 13 13 13 13 12 12 12 12 12 12 12 12
15 15 14 15 16 16 16 17 18 17 17 16 16 15 15 15 16 16 16 15 15 15 15 15 15 14 14 14 14 13 13 13 13 13 13 12 12 12 12 12 12 12 12 12
15 15 14 14 15 15 16 17 17 17 16 16 15 15 15 16 15 14 15 15 15 15 15 14 14 14 14 14 14 13 13 13 13 12 12 12 12 12 12 11 11 11 11 11
14 14 14 14 15 15 16 17 18 17 15 15 15 15 14 14 12 13 15 15 15 14 14 14 14 14 13 13 13 13 13 12 12 12 12 12 12 11 11 11 11 11 11 11
14 13 13 13 14 14 15 16 17 16 15 15 15 15 14 14 14 15 14 14 14 14 14 14 13 13 13 13 13 12 12 12 12 12 12 11 11 11 11 11 11 11 10 10
13 13 13 12 13 14 15 15 15 14 15 15 15 15 15 15 15 14 14 14 14 13 13 13 13 13 12 12 12 12 12 12 11 11 11 11 11 11 11 11 10 10 10 10
12 13 12 12 13 14 15 15 16 16 15 15 15 15 15 14 14 14 14 13 13 13 13 13 12 12 12 12 12 11 11 11 11 11 11 11 11 10 10 10 10 10 9 9
13 12 12 12 13 13 14 15 15 15 15 15 15 15 14 14 14 13 13 13 13 12 12 12 12 12 12 12 11 11 11 11 11 11 10 10 10 10 10 10 9 9 9 9
12 12 11 11 12 13 14 14 14 14 14 14 14 14 14 14 13 13 12 12 12 12 12 12 12 11 11 11 11 11 11 11 10 10 10 10 9 9 9 9 9 9 8 8
11 12 11 11 12 12 13 14 14 14 14 14 14 13 13 13 13 12 12 12 12 11 11 11 11 11 11 11 11 11 10 10 10 10 9 9 9 9 9 8 8 8 8 7
Wind_Speed
1 3 4 8 9 7 5 4 5 6 6 4 6 7 7 6 7 7 8 8 8 9 8 6 6 7 6 5 6 5 5 4 4 3 3 2 1 1 1 1 3 4 5 6
3 4 9 7 6 5 4 4 4 5 4 4 4 5 6 6 8 9 11 11 10 8 5 5 6 6 6 6 6 5 5 4 4 3 3 3 2 1 1 1 2 4 4 5
5 7 6 5 4 4 4 5 5 5 2 1 0 4 4 5 5 7 9 9 10 11 10 8 7 7 7 6 7 6 6 5 4 3 3 3 3 2 2 1 1 1 3 4
4 6 4 3 4 4 5 7 5 3 1 3 3 3 7 5 5 7 8 8 9 9 9 9 9 8 8 8 7 7 6 5 4 4 4 5 3 2 2 2 1 1 2 2
4 4 3 4 5 5 6 5 3 2 3 2 2 3 6 3 5 8 9 9 10 10 10 10 11 10 8 8 8 7 6 6 5 5 5 5 3 2 1 1 2 1 1 1
5 4 4 5 4 4 2 3 4 4 3 3 5 5 5 5 8 7 8 9 9 10 10 10 9 7 7 7 6 6 7 6 5 5 5 6 5 4 3 2 2 1 1 1
4 5 3 2 1 2 4 5 3 4 3 5 3 3 6 7 6 7 9 9 8 8 9 9 9 8 7 8 7 7 7 6 6 6 6 6 6 6 5 4 4 3 2 2
3 5 4 3 4 4 3 7 6 4 4 4 3 3 6 5 2 3 6 7 7 8 9 10 10 10 8 8 9 8 8 7 7 6 6 6 6 5 4 4 4 4 3 4
4 5 4 4 3 6 4 3 6 5 2 2 3 4 5 4 3 2 4 5 7 8 9 10 9 9 9 8 9 9 9 7 7 7 7 6 6 5 5 5 4 4 3 3
5 4 5 3 1 1 5 5 5 3 2 2 3 3 4 3 1 2 4 6 6 6 6 7 8 9 8 8 7 8 8 8 7 7 7 6 6 6 5 4 4 4 4 3
4 3 4 2 3 5 2 3 4 3 3 4 3 5 4 6 5 4 5 6 6 6 6 6 5 6 6 5 5 6 7 7 7 7 7 6 5 5 5 5 5 5 4 3
3 4 3 6 5 4 5 5 6 4 3 3 3 5 5 4 4 4 4 4 4 5 5 5 4 4 3 3 4 4 5 6 7 7 7 6 6 5 5 5 5 5 4 4
3 4 1 4 5 2 2 4 5 5 4 3 3 5 4 2 1 2 3 4 4 4 4 3 3 3 3 3 3 4 4 5 5 6 6 6 5 6 6 6 5 5 4 4
4 4 6 7 6 4 4 4 5 5 4 4 6 5 4 2 1 1 2 3 4 4 4 4 3 3 3 3 3 3 3 4 4 4 5 5 5 6 6 5 5 5 5 4
3 3 4 5 4 3 3 4 4 5 6 7 6 6 6 5 4 3 3 3 3 3 3 4 4 4 3 2 2 3 2 3 4 4 4 5 5 4 4 4 4 4 5 5
2 2 1 2 2 1 1 3 4 4 4 5 4 4 4 3 2 2 2 3 3 2 2 3 3 3 3 4 4 3 3 3 4 4 4 4 3 3 3 4 4 4 4 4
1 2 1 3 3 1 3 4 4 2 2 5 6 6 3 2 3 4 3 3 3 2 2 2 3 4 4 4 4 4 4 3 3 4 5 4 4 4 4 4 3 3 4 4
4 3 2 1 1 4 6 3 4 4 1 2 3 3 5 5 4 2 3 4 3 2 2 2 2 2 2 2 2 2 2 2 3 4 5 4 4 4 3 3 4 4 3 3
5 5 3 2 2 4 4 2 2 4 1 2 3 3 2 4 4 3 1 2 3 2 2 2 2 2 2 1 2 2 2 2 3 4 5 5 4 4 3 4 4 4 3 3
3 4 4 3 3 5 5 6 2 4 1 3 3 4 3 4 2 3 2 1 1 1 1 1 1 1 1 1 1 2 1 1 3 4 5 4 4 5 5 5 4 3 3 4
1 2 3 3 3 5 5 6 2 3 5 3 3 4 5 4 4 3 1 1 1 1 2 2 2 2 0 0 2 2 2 3 4 3 2 2 3 4 5 4 3 2 2 2
4 3 3 3 3 6 4 1 2 4 1 1 3 4 4 3 2 2 2 1 1 1 1 2 2 1 0 1 2 1 2 3 2 1 1 2 2 3 2 2 2 2 2 2
3 5 4 5 5 4 2 2 2 3 3 2 3 3 5 4 3 2 2 1 1 1 1 1 2 1 1 0 1 1 3 1 0 1 1 1 1 1 1 2 3 1 1 2
3 1 2 1 2 2 1 1 2 3 3 2 3 5 5 4 3 2 1 1 1 1 1 2 2 2 1 1 1 1 1 1 1 1 1 1 1 1 0 1 1 2 2 2
3 0 1 1 2 2 3 1 1 2 3 3 3 3 4 4 3 2 1 1 1 1 1 2 2 1 1 1 1 2 1 1 1 1 1 1 1 1 0 0 0 1 2 3
3 4 4 5 6 4 5 3 1 3 2 3 3 3 3 4 3 2 1 1 1 1 1 1 1 0 1 1 1 2 1 0 1 1 1 1 1 1 1 0 2 3 2 3
Wind_Direction
180 107 208 218 206 206 206 210 238 247 228 187 216 231 230 209 187 191 198 197 196 201 202 181 171 163 151 144 144 143 139 146 138 130 131 126 135 148 80 74 101 114 114 116
52 242 236 226 219 208 212 222 252 271 236 193 218 244 236 209 201 194 193 197 198 197 189 181 169 162 161 160 156 150 147 146 148 158 163 158 156 155 134 67 75 104 114 121
197 241 241 220 223 210 232 215 228 239 282 323 103 305 262 243 212 200 196 194 194 190 188 184 176 173 167 166 167 164 159 155 157 151 137 109 75 52 53 57 87 96 126 130
228 250 247 238 239 206 241 243 227 209 161 257 193 262 270 237 223 209 203 197 199 196 187 180 177 176 174 177 172 164 163 163 165 157 147 146 146 163 203 197 182 142 128 134
239 237 223 238 241 208 219 229 223 201 183 260 230 200 274 237 229 223 210 201 199 194 185 183 183 181 176 172 167 167 162 163 164 160 158 158 156 179 189 162 152 168 181 165
240 247 211 221 243 219 191 40 21 43 76 284 230 187 265 231 222 215 209 204 200 195 186 183 184 173 173 171 166 166 163 171 171 163 163 165 167 167 159 161 178 208 235 228
292 283 266 221 256 335 85 82 26 352 355 263 240 185 252 251 225 201 196 196 196 188 179 178 177 176 177 176 175 175 171 177 179 172 176 178 178 174 180 184 192 201 214 236
227 271 256 224 194 198 177 144 162 208 239 281 325 239 272 290 232 184 180 179 175 180 177 180 184 181 181 184 183 181 179 182 183 184 189 185 181 182 192 194 193 203 212 225
195 250 271 243 213 158 153 175 177 156 227 271 292 293 319 7 43 106 145 160 172 180 180 180 182 184 186 189 190 187 184 186 190 191 189 185 188 190 194 199 199 208 221 229
178 237 275 273 77 157 159 155 103 129 192 251 285 278 259 263 234 149 155 169 184 180 181 184 186 187 190 192 191 188 188 194 195 192 193 192 197 201 200 194 198 206 217 223
161 187 289 325 197 200 141 128 127 146 171 173 241 273 246 209 202 188 188 182 174 171 173 180 186 191 189 185 185 190 195 196 196 196 197 194 198 200 197 200 207 209 213 215
170 150 237 257 262 206 173 175 154 165 235 184 183 262 289 210 195 175 179 177 173 170 171 173 173 167 163 168 182 198 205 202 202 199 199 199 200 197 199 205 212 207 207 211
140 126 115 330 326 335 216 197 175 154 148 173 185 259 329 22 62 162 167 167 162 154 152 148 142 147 162 170 177 190 202 205 212 204 199 202 202 198 204 208 209 207 206 207
130 140 182 206 224 223 236 236 191 155 172 206 209 223 284 288 272 234 188 174 159 155 151 151 160 166 168 168 176 193 216 206 198 193 193 204 209 205 210 214 211 209 203 197
104 176 223 232 223 215 226 235 199 184 190 191 213 212 232 226 223 215 197 163 140 141 155 171 180 183 177 173 182 191 210 210 186 180 190 208 213 213 211 215 214 214 206 203
64 186 222 264 244 198 275 264 226 222 205 190 196 238 240 215 138 105 123 139 145 166 189 194 189 181 184 192 196 197 207 211 185 180 194 206 209 212 212 215 212 211 214 214
151 138 130 264 288 23 275 245 204 199 215 185 211 226 207 151 148 163 164 157 162 182 195 198 198 201 203 202 197 202 210 208 186 188 199 207 210 217 221 219 210 215 220 212
167 147 152 216 49 225 242 249 174 152 274 201 177 187 175 169 171 163 151 155 165 168 172 196 213 222 216 206 202 198 191 193 191 197 206 209 205 216 227 218 217 222 226 221
168 155 146 143 198 259 287 287 193 161 268 266 167 169 160 133 80 16 334 157 172 182 178 198 209 206 200 205 205 180 188 199 200 208 215 215 205 206 213 220 228 227 221 232
105 116 135 145 179 228 258 291 295 123 247 290 164 160 156 112 108 270 286 154 149 161 154 155 157 96 117 218 160 151 200 206 223 224 227 224 212 209 215 223 227 235 224 231
63 80 142 178 213 253 271 303 36 147 240 258 160 151 146 159 194 219 211 126 161 156 153 133 102 94 162 153 131 160 215 231 236 228 222 223 219 217 216 220 221 222 228 233
184 169 186 165 197 254 296 39 160 215 230 131 130 133 133 139 124 121 132 136 137 123 115 117 113 105 274 123 128 167 243 257 251 208 212 234 232 225 217 203 214 209 200 213
192 192 188 183 208 253 282 185 215 154 126 124 126 127 120 113 116 124 129 140 139 136 128 118 121 101 31 73 144 190 265 271 158 148 230 258 255 234 201 189 194 197 194 201
291 100 122 156 260 288 329 45 76 109 124 138 127 124 119 123 130 125 115 104 73 83 108 109 109 104 337 323 296 246 262 192 136 168 223 251 225 250 330 193 186 179 199 213
254 203 106 231 261 343 328 339 117 91 90 101 103 113 129 128 128 134 138 157 166 115 97 127 137 153 263 307 318 300 262 148 162 186 214 237 217 205 177 352 273 220 223 218
230 195 190 226 220 199 240 255 148 107 103 123 111 88 99 125 136 134 148 132 96 89 72 83 85 94 301 319 314 313 312 149 177 193 211 215 207 202 179 165 345 343 333 317
Height
1515 1520 1524 1522 1520 1520 1522 1525 1527 1523 1516 1519 1521 1521 1518 1517 1518 1519 1520 1521 1522 1523 1525 1526 1528 1529 1531 1532 1533 1534 1535 1536 1537 1537 1537 1538 1538 1538 1538 1539 1539 1539 1538 1538
1519 1522 1515 1513 1514 1517 1520 1524 1524 1519 1514 1517 1520 1519 1515 1515 1515 1515 1516 1517 1519 1521 1523 1525 1526 1528 1529 1530 1531 1533 1534 1535 1535 1536 1537 1537 1538 1538 1538 1538 1538 1538 1538 1538
1520 1515 1509 1511 1514 1517 1518 1521 1521 1521 1516 1516 1520 1523 1518 1513 1512 1512 1513 1514 1516 1518 1519 1522 1524 1526 1527 1528 1529 1531 1532 1533 1534 1535 1536 1536 1537 1537 1537 1537 1537 1537 1537 1537
1514 1509 1509 1511 1513 1514 1520 1512 1512 1515 1523 1528 1524 1536 1520 1513 1511 1510 1510 1512 1513 1515 1517 1519 1521 1523 1524 1526 1527 1529 1530 1531 1532 1533 1534 1535 1535 1535 1535 1536 1536 1536 1536 1536
1513 1507 1508 1511 1509 1508 1512 1507 1509 1513 1520 1527 1525 1532 1524 1513 1512 1508 1507 1508 1510 1512 1514 1516 1518 1520 1522 1523 1525 1527 1528 1529 1530 1531 1532 1533 1534 1534 1534 1534 1534 1534 1534 1534
1507 1504 1504 1504 1502 1503 1504 1509 1512 1519 1526 1536 1525 1530 1526 1514 1507 1504 1504 1505 1507 1509 1511 1513 1516 1518 1520 1522 1523 1524 1526 1527 1528 1529 1530 1531 1532 1532 1532 1532 1532 1532 1533 1533
1511 1505 1502 1501 1504 1504 1507 1523 1538 1540 1543 1538 1519 1523 1519 1503 1498 1498 1499 1501 1504 1506 1508 1511 1514 1515 1517 1519 1520 1522 1523 1524 1526 1527 1528 1529 1530 1530 1530 1530 1530 1530 1530 1530
1521 1519 1504 1500 1503 1508 1510 1519 1538 1546 1544 1535 1521 1523 1511 1498 1495 1496 1498 1499 1502 1504 1506 1509 1510 1512 1514 1516 1518 1519 1521 1522 1523 1525 1526 1527 1528 1528 1529 1529 1529 1529 1528 1528
1519 1517 1500 1498 1497 1501 1510 1516 1517 1529 1530 1535 1529 1518 1506 1498 1497 1497 1498 1500 1501 1503 1504 1506 1508 1510 1512 1513 1515 1516 1518 1520 1521 1522 1524 1525 1526 1526 1526 1527 1527 1527 1526 1526
1507 1514 1503 1497 1497 1498 1502 1508 1520 1528 1536 1540 1530 1523 1518 1506 1502 1499 1499 1499 1500 1501 1503 1505 1506 1508 1510 1511 1513 1514 1516 1517 1519 1520 1521 1522 1523 1524 1524 1524 1524 1524 1524 1524
1502 1511 1508 1502 1502 1504 1505 1509 1515 1525 1528 1536 1537 1528 1504 1502 1500 1499 1498 1498 1499 1500 1501 1502 1504 1506 1507 1509 1511 1512 1514 1515 1516 1517 1518 1519 1520 1521 1521 1521 1522 1522 1522 1522
1501 1509 1515 1506 1497 1494 1498 1503 1512 1525 1526 1527 1532 1527 1498 1498 1497 1498 1498 1498 1498 1499 1500 1501 1502 1503 1505 1507 1508 1510 1511 1512 1513 1514 1516 1516 1517 1518 1518 1518 1519 1519 1519 1519
1499 1509 1519 1516 1510 1500 1499 1499 1503 1511 1520 1526 1530 1522 1499 1498 1498 1498 1498 1497 1498 1499 1499 1500 1501 1502 1503 1504 1505 1507 1508 1509 1510 1511 1512 1513 1514 1515 1515 1515 1516 1516 1516 1516
1495 1506 1514 1517 1512 1503 1501 1498 1499 1507 1520 1521 1518 1513 1504 1501 1500 1498 1497 1497 1497 1498 1498 1499 1500 1500 1501 1502 1503 1504 1505 1506 1507 1508 1509 1510 1510 1511 1512 1512 1512 1513 1513 1513
1495 1504 1502 1500 1497 1497 1497 1497 1496 1500 1504 1511 1508 1507 1502 1500 1499 1497 1497 1497 1497 1497 1497 1498 1498 1498 1499 1500 1501 1502 1502 1503 1504 1505 1505 1506 1507 1507 1508 1509 1509 1509 1510 1510
1496 1501 1500 1500 1495 1495 1497 1495 1495 1496 1497 1500 1501 1502 1497 1496 1496 1496 1496 1496 1496 1496 1497 1496 1497 1497 1497 1498 1498 1499 1500 1500 1501 1502 1502 1503 1503 1504 1504 1505 1505 1506 1506 1506
1499 1501 1505 1507 1498 1497 1505 1496 1495 1495 1494 1495 1500 1499 1495 1496 1495 1495 1495 1495 1495 1495 1495 1495 1495 1495 1495 1496 1496 1496 1497 1497 1498 1498 1499 1499 1500 1500 1500 1501 1501 1501 1502 1502
1497 1501 1507 1508 1506 1514 1502 1490 1489 1492 1492 1491 1492 1492 1492 1492 1493 1494 1494 1494 1494 1494 1494 1493 1493 1493 1493 1494 1494 1494 1495 1495 1495 1495 1495 1496 1496 1496 1497 1497 1497 1497 1497 1498
1490 1497 1505 1511 1512 1507 1496 1489 1489 1492 1495 1491 1490 1491 1491 1492 1492 1493 1493 1493 1493 1492 1492 1492 1491 1491 1491 1491 1491 1492 1492 1492 1491 1491 1492 1492 1492 1493 1493 1493 1492 1493 1493 1493
1490 1493 1503 1509 1511 1512 1499 1487 1484 1488 1497 1490 1488 1489 1490 1490 1496 1495 1492 1491 1491 1491 1490 1490 1489 1489 1488 1488 1489 1489 1488 1488 1488 1488 1488 1489 1489 1489 1489 1488 1488 1488 1489 1489
1497 1500 1505 1508 1509 1503 1492 1486 1485 1498 1497 1489 1487 1487 1488 1489 1491 1491 1490 1490 1489 1489 1488 1488 1487 1487 1486 1486 1486 1486 1486 1485 1485 1485 1485 1486 1486 1485 1485 1485 1484 1484 1484 1484
1499 1502 1504 1507 1510 1506 1489 1487 1491 1492 1488 1487 1487 1487 1487 1488 1488 1488 1489 1488 1488 1487 1486 1486 1486 1485 1485 1484 1484 1484 1484 1483 1483 1483 1482 1482 1482 1482 1482 1481 1481 1480 1480 1480
1495 1495 1496 1499 1499 1491 1488 1487 1487 1487 1487 1487 1486 1486 1486 1487 1487 1487 1487 1487 1486 1485 1485 1484 1484 1484 1483 1483 1483 1482 1482 1481 1480 1480 1479 1479 1479 1479 1478 1478 1477 1476 1476 1476
1492 1490 1492 1494 1491 1488 1487 1487 1486 1487 1486 1486 1486 1485 1485 1485 1485 1485 1485 1485 1484 1484 1483 1483 1482 1482 1481 1481 1481 1481 1480 1479 1478 1477 1476 1476 1475 1475 1474 1474 1474 1473 1472 1472
1491 1490 1492 1493 1490 1488 1487 1486 1486 1486 1486 1486 1485 1485 1485 1485 1484 1484 1484 1483 1483 1482 1482 1481 1481 1480 1480 1479 1479 1478 1477 1476 1475 1474 1474 1473 1472 1472 1471 1470 1470 1470 1470 1470
1488 1488 1491 1490 1486 1487 1486 1486 1486 1485 1485 1485 1485 1485 1485 1484 1483 1483 1483 1482 1481 1481 1480 1479 1478 1478 1477 1476 1476 1475 1474 1473 1472 1471 1470 1469 1469 1468 1467 1467 1467 1467 1467 1467